Location: Lenomiya Observatory
(32.9017°N, 111.7482°W)
Time: 10:00:34
(UTC-07:00)

ISS - Visible Passes

Search period start: 15 December 2018 00:00
Search period end: 25 December 2018 00:00
Orbit: 401 x 408 km, 51.6° (Epoch: 16 December)

Date Brightness Start Highest point End Pass type
(mag) Time Alt. Az. Time Alt. Az. Time Alt. Az.
15 Dec -3.4 17:42:52 10° NW 17:46:06 67° SW 17:49:19 10° SE visible
20 Dec -0.6 06:51:54 10° S 06:54:11 17° SE 06:56:27 10° E visible
22 Dec -2.8 06:42:46 10° SSW 06:45:58 51° SE 06:49:09 10° NE visible
23 Dec -1.3 05:51:10 10° S 05:53:49 23° SE 05:56:28 10° ENE visible
24 Dec -0.4 05:01:03 10° SE 05:01:44 11° SE 05:02:32 10° ESE visible
24 Dec -3.6 06:34:38 10° WSW 06:37:50 50° NW 06:41:03 10° NE visible
